386P/PanSTARRS (2020)

Japanese version
Home page
Updated on November 9, 2019

---------------------------------------------------------------------

* Profile

* Orbital Elements

Epoch 2020 Aug. 19.0 TT = JDT 2459080.5
T 2020 Aug. 19.38578 TT                                 Williams
q   2.3682573            (2000.0)            P               Q
n   0.12055460     Peri.  353.25912     -0.62141669     -0.76110228
a   4.0583253      Node   134.94751     +0.73053713     -0.64862440
e   0.4164447      Incl.   15.22937     +0.28311977     +0.00311721
P   8.18
From 79 observations 2004 Feb. 14-2019 Nov. 3, mean residual 0".5.

* Magnitudes Graph

        m1 = 14.0 + 5 log d + 10.0 log r

---------------------------------------------------------------------

The orbital elements are published on M.P.E.C. 2019-V116.
The magnitudes graphs are made with Comet for Windows.

---------------------------------------------------------------------

Copyright(C) Seiichi Yoshida (comet@aerith.net). All rights reserved.